SCP
1 1 1 0 0 0 0 0 0 1 1 1 1 1 1 1 1 1 1 1 1 1 1 1 0 0 0 0 0 0 0 0 0 0 0 0 0 0 0 0 0 0 0
1 1 1 0 0 0 0 0 0 0 0 0 1 1 1 0 1 1 1 1 1 1 1 0 0 0 0 0 0 0 0 0 0 0 0 0 0 0 0 0 0 0 0
0 0 0 0 0 0 0 0 0 0 0 0 0 0 0 0 0 0 0 0 0 0 0 0 0 0 0 0 0 0 0 0 0 0 0 0 0 0 0 0 0 0 0
0 0 0 0 0 0 0 0 0 0 0 0 0 0 0 0 0 0 0 0 0 0 0 0 0 0 0 0 0 0 0 0 0 0 0 0 0 0 0 0 0 0 0
0 0 0 0 0 0 0 0 0 0 0 0 0 0 0 0 0 0 0 0 0 0 0 0 0 0 0 0 0 0 0 0 0 0 0 0 0 0 0 0 0 0 0
0 0 0 0 0 0 0 0 0 0 0 0 0 0 0 0 0 0 0 0 0 0 0 0 0 0 0 0 0 0 0 0 0 0 0 0 0 0 0 0 0 0 0
0 0 0 0 0 0 0 0 0 0 0 0 0 0 0 0 0 0 0 0 0 0 0 0 0 0 0 0 0 0 0 0 0 0 0 0 0 0 0 0 0 0 0
0 0 0 0 0 0 0 0 0 0 0 0 0 0 0 0 0 0 0 0 0 0 0 0 0 0 0 0 0 0 0 0 0 0 0 0 0 0 0 0 0 0 0
0 0 0 0 0 0 0 0 0 0 0 0 0 0 0 0 0 0 0 0 0 0 0 0 0 0 0 0 0 0 0 0 0 0 0 0 0 0 0 0 0 0 0
0 0 0 0 0 0 0 0 0 0 0 0 0 0 0 0 0 0 0 0 0 0 0 0 0 0 0 0 0 0 0 0 0 0 0 0 0 0 0 0 0 0 0
0 0 0 0 0 0 0 0 0 0 0 0 0 0 0 0 0 0 0 0 0 0 0 0 0 0 0 0 0 0 0 0 0 0 0 0 0 0 0 0 0 0 0
0 0 0 0 0 0 0 0 0 0 0 0 0 0 0 0 0 0 0 0 0 0 0 0 0 0 0 0 0 0 0 0 0 0 0 0 0 0 0 0 0 0 0
0 0 0 0 0 0 0 0 0 0 0 0 0 0 0 0 0 0 0 0 0 0 0 0 0 0 -0 -0 0 0 0 0 0 0 0 0 0 0 0 0 0 0 0
0 0 0 0 0 0 0 0 0 0 0 0 0 0 0 0 0 0 0 0 0 0 0 0 0 0 0 0 0 0 0 0 0 0 0 0 0 0 0 0 0 0 0
0 0 0 0 0 0 0 0 0 0 0 0 0 0 0 0 0 0 0 0 0 0 0 0 0 0 0 0 0 0 0 0 0 0 0 0 0 0 0 0 0 0 0
0 0 0 0 0 0 0 0 0 0 0 0 0 0 0 0 0 0 0 0 0 0 0 0 0 0 0 0 0 0 0 0 0 0 0 0 0 0 0 0 0 0 0
0 0 0 0 0 0 0 0 0 0 0 0 0 0 0 0 0 0 0 0 0 0 0 0 0 0 0 0 0 0 0 0 0 0 0 0 0 0 0 0 0 0 0
0 0 0 0 0 0 0 0 0 0 0 0 0 0 0 0 0 0 0 0 0 0 0 0 0 0 0 0 0 0 0 0 0 0 0 0 0 0 0 0 0 0 0
0 0 0 0 0 0 0 0 0 0 0 0 0 0 0 0 0 0 0 0 0 0 0 0 0 0 0 0 0 0 0 0 0 0 0 0 0 0 0 0 0 0 0
0 0 0 0 0 0 0 0 0 0 0 0 0 0 0 0 0 0 0 0 0 0 0 0 0 0 0 0 0 0 0 0 0 0 0 0 0 0 0 0 0 0 0
0 0 0 0 0 0 0 0 0 0 0 0 0 0 0 0 0 0 0 0 0 0 0 0 0 0 0 0 0 0 0 0 0 0 0 0 0 0 0 0 0 0 0
0 0 0 0 0 0 0 0 0 0 0 0 0 0 0 0 0 0 0 0 0 0 0 0 0 0 0 0 0 0 0 0 0 0 0 0 0 0 0 0 0 0 0
0 0 0 0 0 0 0 0 0 0 0 0 0 0 0 0 0 0 0 0 0 0 0 0 0 0 0 0 0 0 0 0 0 0 0 0 0 0 0 0 0 0 0
0 0 0 0 0 0 0 0 0 0 0 0 0 0 0 0 0 0 0 0 0 0 0 0 0 0 0 0 0 0 0 0 0 0 0 0 0 0 0 0 0 0 0
0 0 0 0 0 0 0 0 0 0 0 0 0 0 0 0 0 0 0 0 0 0 0 0 0 0 0 0 0 0 0 0 0 0 0 0 0 0 0 0 0 0 0
0 0 0 0 0 0 0 0 0 0 0 0 0 0 0 0 0 0 0 0 0 0 0 0 0 0 0 0 0 0 0 0 0 0 0 0 0 0 0 0 0 0 0
Wind_Speed
3 3 3 3 4 4 4 5 5 6 6 4 3 3 3 2 2 1 1 3 4 3 4 5 4 4 3 3 2 2 2 2 2 3 2 2 3 4 4 4 3 3 4
2 1 2 2 3 4 5 5 6 6 6 6 5 5 4 4 4 4 4 5 5 6 6 5 5 5 5 4 3 3 2 1 1 3 2 2 3 4 5 5 4 3 2
1 1 1 2 2 3 4 4 5 5 6 6 5 5 5 5 5 5 6 7 7 7 7 7 7 7 6 4 4 5 4 4 2 2 2 2 3 4 5 6 5 3 4
1 1 1 1 1 2 3 3 3 4 5 5 5 4 4 4 5 6 7 8 8 8 8 8 8 7 6 5 6 6 5 5 4 3 3 4 4 6 6 6 5 4 4
3 3 2 2 2 1 2 2 2 3 3 3 3 4 4 5 6 5 6 8 7 8 8 7 8 8 8 6 6 5 5 5 5 5 4 5 5 6 6 5 6 5 4
4 4 4 4 4 3 2 2 1 2 2 2 3 4 6 6 9 10 7 7 6 6 6 5 6 6 5 5 5 5 5 5 5 5 4 5 5 5 5 6 5 6 5
5 5 5 5 5 5 5 4 2 1 1 1 3 5 6 6 10 11 8 5 6 5 5 4 6 8 7 5 3 1 1 1 2 2 4 4 4 4 5 6 7 6 5
6 6 6 6 6 6 6 5 4 2 2 1 3 4 5 6 8 9 9 4 5 5 6 6 6 7 8 7 5 3 2 2 2 2 2 3 3 4 4 5 6 7 4
7 7 6 7 7 7 7 6 5 3 3 2 3 4 5 4 6 8 8 2 3 5 6 7 6 6 9 10 6 5 5 5 2 3 5 7 8 9 5 4 6 6 6
7 6 6 7 7 8 7 6 5 4 4 4 4 4 5 4 4 6 6 2 1 4 6 6 9 7 7 9 6 5 5 5 7 7 5 5 4 3 4 2 4 5 6
6 5 6 7 7 7 7 6 6 6 5 4 5 5 5 6 5 4 5 2 2 1 5 5 4 5 5 6 5 3 3 5 6 6 3 3 4 4 5 4 3 3 4
5 6 7 7 8 8 8 7 7 6 6 5 5 5 5 5 5 5 4 4 3 2 4 6 5 3 1 3 3 5 8 8 4 3 4 4 4 4 4 5 5 4 3
6 6 7 8 7 7 9 9 8 7 7 7 7 7 6 5 5 5 3 3 5 4 5 6 6 5 2 3 6 7 6 3 3 4 4 4 3 4 4 4 5 6 6
7 7 7 7 8 8 7 8 8 8 8 8 7 7 6 6 6 5 4 3 3 4 4 5 5 5 4 5 5 4 3 1 2 3 3 3 4 4 4 4 4 4 4
8 7 8 8 8 7 8 6 8 7 7 7 7 7 8 7 7 8 6 4 4 3 3 3 4 4 4 4 3 2 2 2 2 2 3 3 4 4 4 4 4 4 4
9 8 8 8 7 8 8 6 4 4 7 7 6 5 5 10 15 13 11 9 7 6 2 3 4 4 3 2 2 2 3 3 2 2 2 3 3 3 4 4 4 4 4
10 9 8 8 8 9 9 9 7 5 5 6 7 10 12 16 16 14 12 9 6 4 2 3 2 2 2 2 1 2 3 4 2 2 2 3 3 3 3 4 3 4 4
12 11 9 8 8 9 9 9 9 10 9 6 5 11 16 16 15 13 11 7 3 3 4 5 3 2 2 1 1 2 2 3 2 1 2 2 2 3 3 3 3 3 4
12 10 10 9 9 9 9 10 10 11 11 11 9 7 9 12 11 9 8 5 5 6 6 5 4 3 3 3 2 2 2 2 2 0 1 1 2 2 2 3 3 4 3
10 14 11 10 10 10 9 10 9 9 10 11 12 11 10 9 8 7 6 6 6 6 6 5 4 4 4 3 3 3 2 2 3 2 1 1 1 2 3 3 3 4 3
9 12 14 11 10 10 9 10 9 9 9 10 11 14 18 12 11 11 10 9 8 7 6 5 4 5 4 4 4 4 4 2 2 2 1 1 0 1 1 2 3 4 4
7 9 11 12 10 9 9 9 9 9 10 11 9 13 22 14 11 11 11 11 11 9 7 6 5 4 4 5 5 4 4 3 3 2 2 1 1 0 1 2 3 3 3
8 8 9 11 11 10 10 9 9 9 9 9 10 12 14 12 11 11 11 11 10 10 9 7 6 6 5 4 4 4 4 4 3 3 2 1 1 0 1 2 2 3 3
8 8 9 10 10 10 10 10 10 10 9 9 9 11 14 12 10 10 10 8 8 8 8 7 7 8 8 6 5 5 4 5 5 5 5 3 1 0 0 1 1 3 3
6 7 7 8 10 10 10 10 10 10 9 9 9 10 12 13 11 10 7 7 7 7 8 8 6 7 9 9 8 6 6 8 7 6 6 4 3 2 1 0 0 1 2
6 6 7 7 8 9 9 9 10 9 9 9 8 8 9 11 11 11 9 8 7 7 7 6 8 9 9 8 9 11 11 11 10 8 5 4 3 3 3 2 1 1 2
Wind_Direction
332 337 342 356 7 7 10 7 10 9 359 14 22 25 11 3 11 353 231 145 130 117 108 102 94 77 51 27 25 32 35 23 338 334 6 20 22 354 334 311 291 238 221
324 340 1 17 18 24 32 27 27 26 14 17 27 30 17 27 33 47 81 101 101 98 91 90 83 79 66 44 20 27 16 347 337 337 346 14 23 4 344 328 337 338 308
304 320 46 42 31 40 48 41 34 36 32 23 26 43 32 37 45 57 75 85 85 83 81 79 71 62 50 32 37 25 5 0 343 346 7 31 25 6 352 345 350 346 336
230 232 141 99 77 74 73 59 42 41 46 35 21 32 47 53 59 65 76 83 84 80 75 71 67 61 43 15 46 25 12 353 357 17 32 33 24 7 4 348 347 348 346
224 229 192 178 160 133 105 83 60 45 57 46 35 36 48 59 64 74 91 94 89 89 87 87 81 78 64 47 50 29 20 17 18 17 27 30 19 8 0 339 344 335 337
223 221 205 193 183 175 167 138 105 65 44 42 48 51 56 62 54 57 79 91 89 90 93 102 109 81 73 67 66 59 46 42 29 19 23 17 11 5 344 336 337 338 335
223 226 210 199 194 187 184 169 170 150 117 79 77 77 78 61 55 54 47 92 88 78 70 58 72 66 46 26 14 105 96 74 39 33 29 2 354 350 336 332 332 329 319
222 226 216 202 197 186 186 183 183 179 167 129 103 99 98 74 56 47 29 75 90 87 74 63 72 59 32 10 357 23 48 59 18 41 23 330 336 325 322 320 322 330 331
226 221 213 202 197 188 187 183 180 174 171 163 142 122 110 89 57 44 26 43 97 92 82 58 68 68 29 14 14 27 26 13 356 300 279 282 292 299 305 332 344 349 344
230 217 202 195 194 191 186 179 175 174 180 177 155 141 137 125 88 55 25 351 133 119 108 91 72 69 43 27 19 22 19 355 337 325 305 284 295 334 12 12 358 349 341
224 205 194 190 189 186 179 176 175 177 178 177 157 148 142 133 120 80 45 27 357 166 145 125 101 82 52 22 3 13 355 318 303 302 330 13 11 14 17 1 353 342 337
215 196 188 186 194 184 175 176 177 175 170 167 158 153 143 146 137 122 89 61 16 23 87 112 125 128 62 338 334 337 331 325 315 348 19 15 8 6 346 336 338 333 312
213 201 192 192 195 179 175 176 175 177 180 176 175 174 167 155 136 141 132 81 54 64 90 121 147 172 218 263 268 291 315 338 2 7 12 6 355 344 337 346 349 344 342
210 201 190 192 191 183 179 179 182 185 189 185 186 182 171 160 160 168 172 157 129 131 145 156 180 207 247 279 270 254 228 79 10 359 7 355 350 353 359 359 353 343 350
206 202 196 197 194 186 184 183 191 190 193 187 189 181 173 173 167 170 178 171 169 149 156 174 199 209 219 227 220 187 107 81 29 11 17 7 2 357 355 356 348 347 358
203 204 201 198 190 186 180 163 76 134 148 152 158 168 157 146 142 130 120 115 115 123 155 220 217 209 199 181 156 137 119 91 32 3 32 21 3 352 353 351 356 0 356
201 200 201 198 190 187 183 175 161 119 102 120 136 141 141 144 145 140 134 126 120 125 204 249 235 187 157 142 131 106 101 110 86 13 35 24 357 346 356 350 359 7 351
204 203 202 199 192 191 189 186 180 175 173 162 132 140 145 150 149 146 141 139 158 193 230 239 224 183 163 148 120 106 105 113 103 27 46 28 350 341 355 348 356 15 340
212 205 201 202 196 193 191 191 191 187 181 174 156 146 151 144 138 144 155 186 199 207 219 228 219 187 174 161 150 155 156 136 126 180 114 58 347 342 354 344 347 2 345
225 211 199 199 201 196 195 194 192 188 184 177 171 166 161 165 169 172 193 209 220 224 222 218 210 189 181 172 165 175 190 168 162 185 148 102 20 1 347 346 359 359 2
236 213 202 203 204 199 195 196 191 187 186 183 178 170 170 184 189 188 194 206 218 229 230 228 209 195 192 180 181 187 196 199 174 163 155 141 67 4 328 348 9 10 7
247 222 201 204 205 200 194 193 195 191 191 189 180 165 168 184 195 196 198 203 210 218 224 224 224 214 203 192 186 186 191 193 184 166 170 174 156 333 355 16 23 9 0
253 234 207 200 204 197 195 195 197 198 196 192 181 166 175 192 196 200 203 204 204 206 211 210 211 216 206 188 180 185 192 185 169 154 160 159 139 85 41 35 7 354 5
258 242 216 196 198 202 198 196 197 200 199 195 186 174 179 194 203 205 205 204 202 202 201 200 202 208 204 186 180 187 188 172 159 151 152 148 151 147 105 69 357 359 357
262 256 231 200 193 198 197 195 199 201 200 197 191 185 183 189 202 211 209 207 208 207 203 199 197 204 207 199 193 179 157 152 150 145 146 162 181 180 171 268 24 353 336
264 263 246 217 196 195 194 193 197 201 202 198 194 189 189 190 194 202 207 208 210 209 209 205 203 202 199 199 193 165 153 151 148 145 150 163 177 177 166 173 212 259 296